FW0976 Weather Reports


Display with metric or nautical units.
time (UTC)temp
F
wind
direction
speed
MPH
gust
MPH
rain 1hr
in
rain 24hr
in
rain mn
in
humidity
%
barometer
mb
20260906222538 99 166 1.0 7.0 0.00 0.00 0.00 47 1010.5
20260906222038 99 124 1.0 7.0 0.00 0.00 0.00 47 1010.4
20260906221059 98 150 2.0 8.0 0.00 0.00 0.00 48 1010.5
20260906220602 98 150 2.0 8.0 0.00 0.00 0.00 48 1010.4
20260906215545 99 126 1.0 7.0 0.00 0.00 0.00 47 1010.4
20260906215044 99 108 1.0 7.0 0.00 0.00 0.00 47 1010.4
20260906214547 99 134 1.0 7.0 0.00 0.00 0.00 47 1010.5
20260906214046 99 133 1.0 7.0 0.00 0.00 0.00 47 1010.4
20260906213547 99 148 0.0 4.0 0.00 0.00 0.00 47 1010.4
20260906213040 99 128 0.0 3.0 0.00 0.00 0.00 47 1010.5
20260906211537 100 193 0.0 2.0 0.00 0.00 0.00 46 1010.8
20260906211037 100 132 0.0 1.0 0.00 0.00 0.00 46 1010.8
20260906210552 100 125 0.0 1.0 0.00 0.00 0.00 45 1010.9
20260906210053 100 144 0.0 2.0 0.00 0.00 0.00 46 1011.0
20260906205555 100 116 0.0 2.0 0.00 0.00 0.00 46 1011.1
20260906205049 101 134 1.0 7.0 0.00 0.00 0.00 45 1011.1
20260906204550 101 120 1.0 11.0 0.00 0.00 0.00 45 1011.2
20260906204047 101 139 1.0 11.0 0.00 0.00 0.00 45 1011.3
20260906203548 101 50 0.0 5.0 0.00 0.00 0.00 45 1011.2
20260906203047 100 62 2.0 8.0 0.00 0.00 0.00 46 1011.4
20260906202547 100 129 3.0 10.0 0.00 0.00 0.00 45 1011.4
20260906201523 100 119 1.0 7.0 0.00 0.00 0.00 46 1011.5
20260906201018 100 122 1.0 7.0 0.00 0.00 0.00 46 1011.5
20260906200559 99 123 0.0 6.0 0.00 0.00 0.00 46 1011.7
20260906200016 99 131 0.0 2.0 0.00 0.00 0.00 47 1011.6
20260906195558 99 137 0.0 2.0 0.00 0.00 0.00 47 1011.7
20260906195058 99 154 1.0 9.0 0.00 0.00 0.00 47 1011.7
20260906194514 100 169 1.0 9.0 0.00 0.00 0.00 46 1011.8
20260906194052 100 141 2.0 10.0 0.00 0.00 0.00 47 1011.8
20260906193557 98 170 2.0 10.0 0.00 0.00 0.00 48 1011.9
20260906192537 100 152 0.0 4.0 0.00 0.00 0.00 47 1012.1
20260906191044 100 159 0.0 2.0 0.00 0.00 0.00 46 1012.3
20260906190544 99 139 0.0 7.0 0.00 0.00 0.00 48 1012.4
20260906190042 98 76 0.0 7.0 0.00 0.00 0.00 49 1012.4
20260906185543 97 86 1.0 4.0 0.00 0.00 0.00 51 1012.5
20260906185042 98 126 1.0 6.0 0.00 0.00 0.00 47 1012.6
20260906184543 98 205 0.0 6.0 0.00 0.00 0.00 49 1012.5
20260906184043 98 120 0.0 2.0 0.00 0.00 0.00 49 1012.5
20260906183545 99 139 2.0 10.0 0.00 0.00 0.00 47 1012.6
20260906183045 100 151 1.0 10.0 0.00 0.00 0.00 47 1012.7
20260906182026 100 109 1.0 7.0 0.00 0.00 0.00 48 1012.8
20260906181528 99 119 0.0 7.0 0.00 0.00 0.00 47 1013.0
20260906181022 99 112 0.0 2.0 0.00 0.00 0.00 49 1013.1
20260906180052 98 134 1.0 9.0 0.00 0.00 0.00 51 1013.2
20260906175553 99 138 1.0 7.0 0.00 0.00 0.00 48 1013.2
20260906175047 98 214 0.0 6.0 0.00 0.00 0.00 52 1013.3
20260906174548 98 152 1.0 8.0 0.00 0.00 0.00 52 1013.5
20260906174042 97 132 1.0 10.0 0.00 0.00 0.00 52 1013.5
20260906173539 97 123 1.0 10.0 0.00 0.00 0.00 49 1013.4
20260906173039 97 131 0.0 7.0 0.00 0.00 0.00 51 1013.5
20260906172539 98 145 1.0 4.0 0.00 0.00 0.00 52 1013.5
20260906172035 98 122 1.0 8.0 0.00 0.00 0.00 52 1013.6
20260906171536 97 67 1.0 8.0 0.00 0.00 0.00 52 1013.6
20260906171035 97 141 1.0 7.0 0.00 0.00 0.00 53 1013.7
20260906170533 97 158 0.0 2.0 0.00 0.00 0.00 53 1013.7
20260906170028 97 94 0.0 2.0 0.00 0.00 0.00 53 1013.8
20260906164532 96 111 2.0 9.0 0.00 0.00 0.00 53 1014.0
20260906164031 97 178 1.0 8.0 0.00 0.00 0.00 53 1014.0
20260906163533 97 101 0.0 2.0 0.00 0.00 0.00 54 1014.0
20260906163032 96 74 0.0 6.0 0.00 0.00 0.00 56 1014.0
20260906161537 94 100 0.0 5.0 0.00 0.00 0.00 57 1013.7
20260906161037 94 157 0.0 5.0 0.00 0.00 0.00 57 1013.7
20260906160536 94 110 0.0 2.0 0.00 0.00 0.00 57 1013.8
20260906160038 94 121 0.0 2.0 0.00 0.00 0.00 58 1013.8
20260906155019 93 105 0.0 6.0 0.00 0.00 0.00 58 1013.8
20260906154524 92 136 1.0 6.0 0.00 0.00 0.00 59 1013.7
20260906154022 92 161 0.0 3.0 0.00 0.00 0.00 59 1013.7
20260906153525 92 164 0.0 2.0 0.00 0.00 0.00 59 1013.7
20260906152513 93 140 0.0 3.0 0.00 0.00 0.00 60 1013.7
20260906152014 93 63 0.0 3.0 0.00 0.00 0.00 62 1013.7
20260906151518 93 103 0.0 1.0 0.00 0.00 0.00 60 1013.7
20260906151020 92 98 0.0 1.0 0.00 0.00 0.00 61 1013.7
20260906150523 91 98 0.0 4.0 0.00 0.00 0.00 65 1013.6
20260906145508 90 112 0.0 1.0 0.00 0.00 0.00 68 1013.6
20260906145003 90 112 0.0 1.0 0.00 0.00 0.00 68 1013.7
20260906144509 89 112 0.0 1.0 0.00 0.00 0.00 73 1013.6
20260906144007 88 112 0.0 3.0 0.00 0.00 0.00 74 1013.5
20260906143512 87 112 0.0 3.0 0.00 0.00 0.00 76 1013.6
20260906143012 86 112 0.0 2.0 0.00 0.00 0.00 77 1013.7
20260906142518 86 111 0.0 2.0 0.00 0.00 0.00 79 1013.7
20260906141506 84 111 0.0 2.0 0.00 0.00 0.00 83 1013.8
20260906141009 83 111 0.0 3.0 0.00 0.00 0.00 86 1013.8
20260906140511 82 111 0.0 3.0 0.00 0.00 0.00 87 1013.8
20260906135459 81 111 0.0 3.0 0.00 0.00 0.00 91 1013.7
20260906134528 79 111 0.0 1.0 0.00 0.00 0.00 93 1013.8
20260906134026 79 112 0.0 1.0 0.00 0.00 0.00 94 1013.8
20260906133450 78 113 0.0 1.0 0.00 0.00 0.00 95 1013.8
20260906132954 77 113 0.0 1.0 0.00 0.00 0.00 95 1013.8
20260906132457 77 113 0.0 1.0 0.00 0.00 0.00 96 1013.8
20260906132001 76 113 0.0 1.0 0.00 0.00 0.00 96 1013.8
20260906130955 76 113 0.0 1.0 0.00 0.00 0.00 96 1013.8
20260906130458 75 113 0.0 1.0 0.00 0.00 0.00 96 1013.8
20260906130004 75 113 0.0 1.0 0.00 0.00 0.00 96 1013.6
20260906125508 75 113 0.0 0.0 0.00 0.00 0.00 96 1013.6
20260906125011 74 103 0.0 0.0 0.00 0.00 0.00 96 1013.6
20260906124000 74 153 0.0 1.0 0.00 0.00 0.00 95 1013.5
20260906123503 74 153 0.0 0.0 0.00 0.00 0.00 95 1013.5
20260906122457 74 151 0.0 0.0 0.00 0.00 0.00 95 1013.3
20260906121444 74 146 0.0 0.0 0.00 0.00 0.00 95 1013.3
20260906120945 74 146 0.0 0.0 0.00 0.00 0.00 95 1013.3
20260906120454 74 146 0.0 0.0 0.00 0.00 0.00 95 1013.2
20260906115955 74 146 0.0 0.0 0.00 0.00 0.00 95 1013.2
20260906115507 74 146 0.0 0.0 0.00 0.00 0.00 94 1013.2
20260906114458 74 146 0.0 0.0 0.00 0.00 0.00 94 1013.1
20260906113952 75 146 0.0 1.0 0.00 0.00 0.00 94 1013.0
20260906113459 75 146 0.0 1.0 0.00 0.00 0.00 94 1013.1
20260906113000 75 146 0.0 1.0 0.00 0.00 0.00 94 1013.0
20260906112510 75 146 0.0 1.0 0.00 0.00 0.00 94 1013.0
20260906111930 75 146 0.0 0.0 0.00 0.00 0.00 94 1012.9
20260906111437 75 146 0.0 0.0 0.00 0.00 0.00 94 1012.9
20260906110943 75 146 0.0 0.0 0.00 0.00 0.00 94 1012.8
20260906110454 75 146 0.0 0.0 0.00 0.00 0.00 94 1012.8
20260906110000 75 146 0.0 0.0 0.00 0.00 0.00 94 1012.8
20260906105511 75 146 0.0 0.0 0.00 0.00 0.00 94 1012.7
20260906105006 75 146 0.0 1.0 0.00 0.00 0.00 94 1012.6
20260906104429 75 146 0.0 1.0 0.00 0.00 0.00 94 1012.4
20260906103928 76 146 0.0 0.0 0.00 0.00 0.00 93 1012.5
20260906103436 76 146 0.0 0.0 0.00 0.00 0.00 93 1012.5
20260906102941 76 146 0.0 0.0 0.00 0.00 0.00 93 1012.4
20260906102450 76 146 0.0 0.0 0.00 0.00 0.00 93 1012.4
20260906101953 76 146 0.0 0.0 0.00 0.00 0.00 93 1012.3
20260906101505 76 146 0.0 0.0 0.00 0.00 0.00 93 1012.4
20260906100455 76 146 0.0 0.0 0.00 0.00 0.00 92 1012.4
20260906100002 76 146 0.0 0.0 0.00 0.00 0.00 91 1012.5
20260906095508 76 146 0.0 0.0 0.00 0.00 0.00 91 1012.4
20260906095009 77 146 0.0 0.0 0.00 0.00 0.00 91 1012.4
20260906094515 77 146 0.0 0.0 0.00 0.00 0.00 91 1012.4
20260906093931 77 146 0.0 0.0 0.00 0.00 0.00 89 1012.3
20260906093435 77 146 0.0 0.0 0.00 0.00 0.00 89 1012.2
20260906092941 77 146 0.0 0.0 0.00 0.00 0.00 89 1012.2
20260906092002 78 146 0.0 0.0 0.00 0.00 0.00 87 1012.1
20260906091422 78 146 0.0 0.0 0.00 0.00 0.00 87 1012.2
20260906090922 78 146 0.0 0.0 0.00 0.00 0.00 87 1012.2
20260906090423 78 146 0.0 0.0 0.00 0.00 0.00 86 1012.1
20260906085918 78 146 0.0 0.0 0.00 0.00 0.00 86 1012.1
20260906085419 78 146 0.0 0.0 0.00 0.00 0.00 86 1012.0
20260906084959 78 146 0.0 1.0 0.00 0.00 0.00 86 1012.0
20260906084420 79 146 0.0 1.0 0.00 0.00 0.00 85 1011.9
20260906083919 79 146 0.0 1.0 0.00 0.00 0.00 85 1011.9
20260906083422 79 146 0.0 0.0 0.00 0.00 0.00 85 1011.8
20260906082918 79 146 0.0 1.0 0.00 0.00 0.00 85 1011.8
20260906082418 80 146 0.0 1.0 0.00 0.00 0.00 84 1011.8
20260906081914 80 146 0.0 1.0 0.00 0.00 0.00 84 1011.8
20260906081416 80 142 0.0 1.0 0.00 0.00 0.00 84 1011.8
20260906075939 80 141 0.0 1.0 0.00 0.00 0.00 83 1011.9
20260906075358 80 145 0.0 1.0 0.00 0.00 0.00 83 1011.7
20260906074904 80 145 0.0 0.0 0.00 0.00 0.00 83 1011.7
20260906074409 80 145 0.0 0.0 0.00 0.00 0.00 82 1011.7
20260906073357 80 145 0.0 1.0 0.00 0.00 0.00 82 1011.8
20260906073255 80 137 0.0 1.0 0.00 0.00 0.00 62 1014.6
20260906073249 81 135 0.0 1.0 0.00 0.00 0.00 60 1014.7
20260906072929 80 145 0.0 1.0 0.00 0.00 0.00 82 1011.7
20260906072351 80 145 0.0 1.0 0.00 0.00 0.00 82 1011.8
20260906071940 80 145 0.0 1.0 0.00 0.00 0.00 82 1011.8
20260906071404 80 145 0.0 1.0 0.00 0.00 0.00 82 1011.9
20260906071305 81 138 0.0 2.0 0.00 0.00 0.00 60 1014.7
20260906070900 80 144 0.0 1.0 0.00 0.00 0.00 82 1012.0
20260906065930 81 144 0.0 1.0 0.00 0.00 0.00 82 1012.2
20260906065349 81 144 0.0 1.0 0.00 0.00 0.00 82 1012.3
20260906064423 81 143 0.0 1.0 0.00 0.00 0.00 81 1012.2
20260906063411 81 143 0.0 1.0 0.00 0.00 0.00 81 1012.3
20260906062912 82 143 0.0 1.0 0.00 0.00 0.00 80 1012.1
20260906062414 82 143 0.0 1.0 0.00 0.00 0.00 80 1012.2
20260906061916 82 140 0.0 1.0 0.00 0.00 0.00 79 1012.1
20260906061410 82 163 0.0 1.0 0.00 0.00 0.00 79 1012.1
20260906055420 82 150 0.0 1.0 0.00 0.00 0.00 79 1012.2
20260906054922 82 150 0.0 1.0 0.00 0.00 0.00 78 1012.3
20260906054428 82 148 0.0 1.0 0.00 0.00 0.00 79 1012.4
20260906053853 82 148 0.0 1.0 0.00 0.00 0.00 79 1012.3
20260906053358 82 148 0.0 1.0 0.00 0.00 0.00 78 1012.2
20260906052900 82 148 0.0 1.0 0.00 0.00 0.00 79 1012.3
20260906052408 82 148 0.0 0.0 0.00 0.00 0.00 78 1012.1
20260906050926 82 148 0.0 0.0 0.00 0.00 0.00 78 1012.1
20260906050348 82 148 0.0 0.0 0.00 0.00 0.00 77 1012.1
20260906045847 82 148 0.0 0.0 0.00 0.00 0.00 77 1012.1
20260906045350 83 148 0.0 0.0 0.00 0.00 0.00 76 1012.1
20260906044854 83 148 0.0 0.0 0.00 0.00 0.00 76 1012.1
20260906044358 83 148 0.0 0.0 0.00 0.00 0.00 76 1012.2
20260906043903 83 148 0.0 0.0 0.00 0.00 0.00 75 1012.3
20260906043405 83 148 0.0 1.0 0.00 0.00 0.00 75 1012.3
20260906042906 84 148 0.0 1.0 0.00 0.00 0.00 75 1012.3
20260906042413 84 148 0.0 2.0 0.00 0.00 0.00 74 1012.2
20260906041913 84 150 0.0 2.0 0.00 0.00 0.00 74 1012.1
20260906041417 84 150 0.0 1.0 0.00 0.00 0.00 74 1012.1
20260906040918 84 151 0.0 1.0 0.00 0.00 0.00 73 1012.2
20260906040417 84 150 0.0 1.0 0.00 0.00 0.00 73 1012.1
20260906035837 84 150 0.0 1.0 0.00 0.00 0.00 73 1012.1
20260906035421 85 150 0.0 1.0 0.00 0.00 0.00 73 1012.1
20260906034922 85 152 0.0 1.0 0.00 0.00 0.00 72 1012.1
20260906034423 85 152 0.0 1.0 0.00 0.00 0.00 72 1012.1
20260906033926 85 152 0.0 1.0 0.00 0.00 0.00 72 1012.1
20260906033347 85 152 0.0 1.0 0.00 0.00 0.00 71 1012.0
20260906032851 85 152 0.0 1.0 0.00 0.00 0.00 71 1012.1
20260906032356 85 152 0.0 1.0 0.00 0.00 0.00 71 1012.1
20260906031854 85 152 0.0 5.0 0.00 0.00 0.00 69 1012.2
20260906031359 85 152 0.0 5.0 0.00 0.00 0.00 69 1012.2
20260906030858 86 163 0.0 3.0 0.00 0.00 0.00 69 1012.2
20260906025848 86 140 0.0 2.0 0.00 0.00 0.00 68 1012.2
20260906025351 86 143 0.0 2.0 0.00 0.00 0.00 68 1012.2
20260906024337 86 150 1.0 7.0 0.00 0.00 0.00 67 1012.1
20260906023916 86 160 2.0 8.0 0.00 0.00 0.00 67 1011.9
20260906023418 87 150 2.0 8.0 0.00 0.00 0.00 66 1011.8
20260906022917 87 147 1.0 6.0 0.00 0.00 0.00 66 1011.7
20260906022335 87 159 0.0 2.0 0.00 0.00 0.00 66 1011.7
20260906021402 87 165 0.0 2.0 0.00 0.00 0.00 66 1011.4
20260906020350 87 148 0.0 5.0 0.00 0.00 0.00 65 1011.3
20260906015850 87 150 0.0 5.0 0.00 0.00 0.00 64 1011.3
20260906015349 88 142 1.0 6.0 0.00 0.00 0.00 64 1011.3
20260906014923 88 123 2.0 6.0 0.00 0.00 0.00 64 1011.3
20260906014343 88 144 2.0 9.0 0.00 0.00 0.00 63 1011.2
20260906013409 89 143 0.0 9.0 0.00 0.00 0.00 63 1011.1
20260906012908 89 132 2.0 10.0 0.00 0.00 0.00 62 1011.1
20260906012408 89 150 2.0 10.0 0.00 0.00 0.00 62 1011.0
20260906011906 89 138 2.0 11.0 0.00 0.00 0.00 62 1010.9
20260906011403 90 147 4.0 12.0 0.00 0.00 0.00 61 1010.8
20260906010904 90 227 4.0 12.0 0.00 0.00 0.00 61 1010.8
20260906010404 91 142 4.0 12.0 0.00 0.00 0.00 60 1010.7
20260906005904 92 142 3.0 12.0 0.00 0.00 0.00 58 1010.6
20260906005404 94 175 0.0 1.0 0.00 0.00 0.00 52 1010.5
20260906004908 94 136 0.0 1.0 0.00 0.00 0.00 49 1010.2
20260906004411 94 135 0.0 1.0 0.00 0.00 0.00 49 1010.2
20260906003912 95 143 0.0 2.0 0.00 0.00 0.00 48 1010.2
20260906003333 95 148 0.0 2.0 0.00 0.00 0.00 48 1010.2
20260906002835 95 116 0.0 1.0 0.00 0.00 0.00 48 1010.3
20260906002336 95 116 0.0 2.0 0.00 0.00 0.00 48 1010.2
20260906001916 95 116 0.0 2.0 0.00 0.00 0.00 49 1010.3
20260906001331 95 130 0.0 1.0 0.00 0.00 0.00 48 1010.3
20260906000355 96 117 0.0 4.0 0.00 0.00 0.00 48 1010.2
20260905235856 96 143 0.0 4.0 0.00 0.00 0.00 48 1010.2
20260905235355 96 126 0.0 1.0 0.00 0.00 0.00 47 1010.2
20260905234858 96 126 0.0 3.0 0.00 0.00 0.00 47 1010.1
20260905234400 97 105 0.0 3.0 0.00 0.00 0.00 46 1010.0
20260905233343 98 132 0.0 1.0 0.00 0.00 0.00 46 1010.1
20260905232844 98 111 0.0 1.0 0.00 0.00 0.00 45 1010.0
20260905232349 99 99 0.0 1.0 0.00 0.00 0.00 45 1010.0
20260905231848 99 88 0.0 2.0 0.00 0.00 0.00 44 1010.0
20260905231349 99 86 0.0 3.0 0.00 0.00 0.00 45 1010.0
20260905230332 100 65 1.0 5.0 0.00 0.00 0.00 44 1010.1
20260905225831 100 82 0.0 2.0 0.00 0.00 0.00 43 1010.1
20260905225333 100 90 0.0 2.0 0.00 0.00 0.00 45 1010.0
20260905224350 100 169 0.0 1.0 0.00 0.00 0.00 45 1009.9
20260905223854 100 135 0.0 2.0 0.00 0.00 0.00 44 1009.9
20260905223353 100 107 0.0 2.0 0.00 0.00 0.00 43 1010.0
20260905222853 100 107 0.0 5.0 0.00 0.00 0.00 45 1010.0